TimeEDT,TemperatureF,Dew PointF,Humidity,Sea Level PressureIn,VisibilityMPH,Wind Direction,Wind SpeedMPH,Gust SpeedMPH,PrecipitationIn,Events,Conditions,WindDirDegrees,DateUTC
12:51 AM,55.0,52.0,89,30.02,10.0,Calm,Calm,-,N/A,,Clear,0,2013-09-16 04:51:00
1:51 AM,55.0,52.0,89,30.00,10.0,Calm,Calm,-,N/A,,Clear,0,2013-09-16 05:51:00
2:51 AM,55.9,51.1,84,29.99,10.0,Calm,Calm,-,N/A,,Clear,0,2013-09-16 06:51:00
3:51 AM,57.0,51.1,81,29.99,10.0,NW,3.5,-,N/A,,Clear,310,2013-09-16 07:51:00
4:51 AM,57.0,50.0,77,29.99,10.0,Calm,Calm,-,N/A,,Clear,0,2013-09-16 08:51:00
5:51 AM,55.9,50.0,80,29.99,10.0,Variable,3.5,-,N/A,,Clear,0,2013-09-16 09:51:00
6:51 AM,55.9,51.1,84,30.02,10.0,Calm,Calm,-,N/A,,Partly Cloudy,0,2013-09-16 10:51:00
7:51 AM,57.9,50.0,75,30.02,10.0,Variable,3.5,-,N/A,,Overcast,0,2013-09-16 11:51:00
8:51 AM,57.0,52.0,83,30.03,10.0,Calm,Calm,-,0.00,Rain,Light Rain,0,2013-09-16 12:51:00
9:51 AM,59.0,53.1,81,30.02,10.0,Variable,3.5,-,0.00,,Mostly Cloudy,0,2013-09-16 13:51:00
10:51 AM,62.1,51.1,67,30.01,10.0,Variable,5.8,-,N/A,,Scattered Clouds,0,2013-09-16 14:51:00
11:51 AM,64.0,51.1,63,30.01,10.0,NW,9.2,-,N/A,,Mostly Cloudy,320,2013-09-16 15:51:00
12:51 PM,66.0,51.1,59,30.01,10.0,NW,10.4,-,N/A,,Partly Cloudy,320,2013-09-16 16:51:00
1:51 PM,64.0,50.0,60,30.01,10.0,NW,16.1,21.9,N/A,,Overcast,320,2013-09-16 17:51:00
2:51 PM,63.0,50.0,63,30.01,10.0,NW,15.0,23.0,N/A,,Overcast,320,2013-09-16 18:51:00
3:51 PM,64.9,48.9,56,30.01,10.0,NW,13.8,19.6,N/A,,Scattered Clouds,310,2013-09-16 19:51:00
4:51 PM,61.0,46.0,58,30.04,10.0,NW,12.7,-,N/A,,Scattered Clouds,310,2013-09-16 20:51:00
5:51 PM,57.9,43.0,58,30.07,10.0,NW,15.0,-,N/A,,Clear,320,2013-09-16 21:51:00
6:51 PM,54.0,39.9,59,30.10,10.0,NW,12.7,-,N/A,,Clear,310,2013-09-16 22:51:00
7:51 PM,50.0,39.0,66,30.14,10.0,NW,9.2,-,N/A,,Clear,310,2013-09-16 23:51:00
8:51 PM,48.0,39.0,71,30.17,10.0,NNW,5.8,-,N/A,,Clear,340,2013-09-17 00:51:00
9:51 PM,46.0,36.0,68,30.20,10.0,NNW,6.9,-,N/A,,Clear,330,2013-09-17 01:51:00
10:51 PM,45.0,36.0,71,30.23,10.0,North,5.8,-,N/A,,Clear,350,2013-09-17 02:51:00
11:51 PM,42.1,34.0,73,30.25,10.0,NNW,6.9,-,N/A,,Clear,340,2013-09-17 03:51:00